Weather in Nyeri

Kenya     0°25′18″N   36°57′03″E
temp.,
°C
wind,
m/s
gust,
m/s
humid.,
%
clouds,
%
prec.,
mm/h
press.,
hPa
HPBL,
m
20 january, thu
thu2000:00+12nw2289100 0.0 101825
03:00+12nw2285100 0.0 101745
06:00+11nw2284100 0.0 101938
09:00+17nnw496395 0.0 1018747
12:00+24n453814 0.0 10141860
15:00+26nne333492 0.0 10102553
18:00+19sse2670100 0.1 1012214
21:00+15wsw2392100 0.4 101652
21 january, fri
fri2100:00+14nw2290100 0.0 101737
03:00+12nw2486100 0.0 101679
06:00+11nw2380100 0.0 101758
09:00+19nnw4955100 0.0 1017779
12:00+24nnw4537100 0.0 10142208
15:00+23ene4445100 0.0 10111561
18:00+17sw1280100 0.4 101446
21:00+14w2291100 0.6 101838
22 january, sat
sat2200:00+12nw2389100 0.0 101853
03:00+13nw3883100 0.0 1016157
06:00+12nw247523 0.0 101755
09:00+19n3548100 0.0 1016633
12:00+24e243699 0.0 10132040
15:00+25e343671 0.0 10092295
18:00+19se367257 0.3 1012339
21:00+14wsw2290100 0.3 101734
23 january, sun
sun2300:00+12nnw2491100 0.0 101784
03:00+12nw3878100 0.0 1016141
06:00+11nw246989 0.0 101774
09:00+18nnw51048100 0.0 1016658
12:00+25n442963 0.0 10121551
15:00+25e3332100 0.0 10092138
18:00+20se2458100 0.0 1011168
21:00+14w2274100 0.0 101637
24 january, mon
mon2400:00+13nw2273100 0.0 101747
03:00+12nw3768100 0.0 1015175
06:00+12nw3568100 0.0 1015117
09:00+19n464657 0.0 1015643
12:00+26nne4628100 0.0 10101752
15:00+26nne342892 0.0 10072539
18:00+20se2749100 0.0 1010310
21:00+15wsw2366100 0.0 101552